This demonstration page uses our WeatherBlox Daily Observations layout. Learn more.

Left ArrowRight Arrow

39.51506, -84.39828

Hourly Observations for May 15, 2021

Temp ( °F °C ) Dew Point ( °F °C ) Humidity (%) Winds ( mph kmh ) Pressure ( in mb ) Visibility ( mi km ) Precip ( " mm )
12:15 am 00:15 Clear 46 7.9 41 4.9 82 82 N N/A 30.29 1026 10 16 N/A
12:35 am 00:35 Clear 44 6.9 40 4.5 85 85 N 3 6 30.30 1026 10 16 N/A
12:55 am 00:55 Clear 44 6.8 41 5.2 90 90 NNE 3 6 30.30 1026 10 16 N/A
1:15 am 01:15 Clear 43 6 41 5 93 93 NNE 3 6 30.30 1026 10 16 N/A
1:35 am 01:35 Clear 44 6.4 41 4.9 90 90 NNE 5 7 30.31 1026 10 16 N/A
1:55 am 01:55 Clear 43 6.3 41 4.8 90 90 N N/A 30.31 1026 10 16 N/A
2:15 am 02:15 Partly Cloudy 42 5.8 40 4.7 93 93 N N/A 30.31 1026 10 16 N/A
2:35 am 02:35 Clear 43 6.1 40 4.6 90 90 NNE 5 7 30.31 1026 10 16 N/A
2:55 am 02:55 Clear 42 5.5 40 4.5 93 93 NNE 5 7 30.30 1026 10 16 N/A
3:15 am 03:15 Clear 42 5.4 40 4.6 95 95 N N/A 30.30 1026 10 16 N/A
3:35 am 03:35 Clear 42 5.3 40 4.6 95 95 NNE 3 6 30.30 1026 10 16 N/A
3:55 am 03:55 Clear 42 5.3 40 4.6 95 95 N N/A 30.30 1026 10 16 N/A
4:15 am 04:15 Clear 41 4.8 39 4.1 95 95 NNE 3 6 30.30 1026 10 16 N/A
4:35 am 04:35 Clear 41 4.9 40 4.5 97 97 N N/A 30.30 1026 10 16 N/A
4:55 am 04:55 Clear 40 4.6 40 4.2 97 97 N N/A 30.31 1027 10 16 N/A
5:15 am 05:15 Clear 40 4.6 39 4 96 96 N 3 6 30.31 1027 10 16 N/A
5:35 am 05:35 Clear 40 4.4 39 4.1 98 98 NNE 3 6 30.31 1027 10 16 N/A
5:55 am 05:55 Clear 39 3.9 39 3.7 99 99 N N/A 30.32 1027 10 16 N/A
6:15 am 06:15 Clear 39 3.7 38 3.6 99 99 NNE 5 7 30.33 1027 10 16 N/A
6:35 am 06:35 Sunny 39 4 39 3.9 99 99 N N/A 30.32 1027 10 16 N/A
6:55 am 06:55 Sunny 39 4 37 3 93 93 N N/A 30.33 1027 10 16 N/A
7:15 am 07:15 Sunny 39 4 N/A N/A N N/A 30.35 1028 10 16 N/A
7:35 am 07:35 Sunny 41 5 N/A N/A N N/A 30.35 1028 10 16 N/A
7:55 am 07:55 Sunny 44 6.7 44 6.4 98 98 N N/A 30.35 1028 10 16 N/A
8:15 am 08:15 Sunny 47 8.1 44 6.5 90 90 N N/A 30.34 1028 10 16 N/A
8:35 am 08:35 Sunny 49 9.4 45 7.3 87 87 N N/A 30.33 1027 10 16 N/A
8:55 am 08:55 Sunny 51 10.4 45 7.3 81 81 N N/A 30.33 1027 10 16 N/A
9:15 am 09:15 Sunny 54 12 47 8.1 77 77 N N/A 30.33 1027 10 16 N/A
9:35 am 09:35 Sunny 56 13.5 46 7.9 69 69 N N/A 30.33 1027 10 16 N/A
9:55 am 09:55 Sunny 60 15.4 46 7.6 60 60 N N/A 30.33 1027 10 16 N/A
10:15 am 10:15 Sunny 62 16.6 40 4.3 44 44 WSW 7 11 30.31 1027 10 16 N/A
10:35 am 10:35 Sunny 64 17.7 38 3.4 39 39 SW 6 9 30.31 1026 10 16 N/A
10:55 am 10:55 Sunny 65 18.5 40 4.2 39 39 WSW 8 13 30.31 1026 10 16 N/A
11:15 am 11:15 Sunny 66 18.9 39 3.9 37 37 WSW 8 13 30.31 1026 10 16 N/A
11:35 am 11:35 Sunny 67 19.6 39 3.7 35 35 SW 8 13 30.30 1026 10 16 N/A
11:55 am 11:55 Sunny 69 20.4 40 4.5 35 35 SW 6 9 30.29 1026 10 16 N/A
12:15 pm 12:15 Sunny 68 20.2 36 2 30 30 WSW 9 15 30.29 1026 10 16 N/A
12:35 pm 12:35 Sunny 68 20.2 35 1.6 29 29 WSW 10 17 30.28 1026 10 16 N/A
12:55 pm 12:55 Sunny 68 20.2 34 1.2 28 28 SW 6 9 30.28 1026 10 16 N/A
1:15 pm 13:15 Sunny 69 20.7 34 0.9 27 27 W 3 6 30.26 1025 10 16 N/A
1:35 pm 13:35 Sunny 70 21.2 37 2.6 29 29 W 6 9 30.25 1024 10 16 N/A
1:55 pm 13:55 Partly Cloudy 70 21.3 35 1.9 28 28 SSE 3 6 30.24 1024 10 16 N/A
2:15 pm 14:15 Sunny 71 21.6 39 3.8 31 31 S 6 9 30.24 1024 10 16 N/A
2:35 pm 14:35 Partly Cloudy 71 21.4 35 1.9 28 28 N N/A 30.23 1024 10 16 N/A
2:55 pm 14:55 Partly Cloudy 71 21.8 38 3.6 30 30 WSW 12 19 30.23 1024 10 16 N/A
3:15 pm 15:15 Mostly Cloudy 71 21.7 35 1.5 26 26 WSW 7 11 30.23 1024 10 16 N/A
3:35 pm 15:35 Partly Cloudy 71 21.8 38 3.3 30 30 SSE 5 7 30.22 1023 10 16 N/A
3:55 pm 15:55 Sunny 71 21.7 37 3 29 29 WSW 6 9 30.21 1023 10 16 N/A
4:15 pm 16:15 Sunny 71 21.5 37 2.7 29 29 SW 3 6 30.21 1023 10 16 N/A
4:35 pm 16:35 Sunny 71 21.8 37 3 29 29 W 5 7 30.20 1023 10 16 N/A
4:55 pm 16:55 Partly Cloudy 71 21.8 38 3.4 30 30 NNW 6 9 30.19 1022 10 16 N/A
5:15 pm 17:15 Partly Cloudy 72 22.4 38 3.5 29 29 WSW 3 6 30.19 1022 10 16 N/A
5:35 pm 17:35 Partly Cloudy 71 21.9 38 3.1 29 29 SW 6 9 30.19 1022 10 16 N/A
5:55 pm 17:55 Partly Cloudy 72 22.1 38 3.4 29 29 SW 9 15 30.19 1022 10 16 N/A
6:15 pm 18:15 Sunny 69 20.8 36 2.2 29 29 SW 6 9 30.18 1022 10 16 N/A
6:35 pm 18:35 Sunny 69 20.5 40 4.3 35 35 WSW 7 11 30.18 1022 10 16 N/A
6:55 pm 18:55 Sunny 68 20.1 40 4.7 36 36 WSW 3 6 30.18 1022 10 16 N/A
7:15 pm 19:15 Partly Cloudy 69 20.3 41 4.9 37 37 W 5 7 30.17 1022 10 16 N/A
7:35 pm 19:35 Hazy 68 20.2 36 2.2 30 30 S 3 6 30.17 1022 7 11 N/A
7:55 pm 19:55 Partly Cloudy 68 20.1 37 2.5 31 31 S 3 6 30.17 1022 10 16 N/A
8:15 pm 20:15 Cloudy 67 19.7 36 2.4 32 32 SE 3 6 30.18 1022 10 16 N/A
8:35 pm 20:35 Mostly Cloudy 62 16.6 50 10.1 66 66 NNW 3 6 30.19 1022 10 16 N/A
8:55 pm 20:55 Cloudy 62 16.4 49 9.6 64 64 NW 3 6 30.19 1022 10 16 N/A
9:15 pm 21:15 Cloudy 61 16.3 46 7.8 57 57 NE 3 6 30.19 1022 10 16 N/A
9:35 pm 21:35 Mostly Cloudy 60 15.5 48 9.1 66 66 N N/A 30.20 1023 10 16 N/A
9:55 pm 21:55 Mostly Cloudy 60 15.3 47 8.4 64 64 N N/A 30.20 1023 10 16 N/A
10:15 pm 22:15 Cloudy 59 14.9 49 9.7 71 71 N N/A 30.20 1023 10 16 N/A
10:35 pm 22:35 Partly Cloudy 58 14.4 48 9 70 70 N N/A 30.20 1023 10 16 N/A
10:55 pm 22:55 Mostly Cloudy 58 14.4 49 9.5 73 73 N N/A 30.20 1023 10 16 N/A
11:15 pm 23:15 Cloudy 58 14.2 47 8.6 69 69 WSW 3 6 30.19 1022 10 16 N/A
11:35 pm 23:35 Cloudy 57 13.7 51 10.4 81 81 ENE 3 6 30.19 1022 10 16 N/A
11:55 pm 23:55 Cloudy 59 15.1 47 8.5 65 65 N N/A 30.19 1022 10 16 N/A

Powered by AerisWeather